Wind_Speed
18 19 19 19 18 19 20 21 22 21 21 21 23 23 22 22 22 22 21 22 23 23 24 23 23 23 24 24 24 24 24 24 25 25 25 25 24 24 23 23 23 24 24 24
20 20 20 20 19 19 21 22 22 23 22 22 22 22 23 23 23 23 23 24 24 24 25 25 25 25 25 25 25 25 25 25 26 26 26 26 26 25 25 24 25 25 25 25
20 20 21 21 19 20 22 22 22 23 23 24 24 24 24 25 24 24 24 25 24 24 25 26 27 27 26 26 27 27 27 27 26 26 26 26 26 26 26 26 26 26 26 26
21 21 22 21 20 20 21 21 22 22 23 23 24 24 24 25 25 25 26 26 26 26 27 27 28 28 28 28 28 28 28 28 27 27 27 27 28 28 28 28 28 27 27 26
23 22 22 20 20 20 21 21 22 22 23 23 24 24 24 24 25 26 26 27 27 28 29 28 29 29 29 29 29 29 29 29 28 28 29 29 29 29 29 28 28 28 27 27
23 23 22 20 20 21 22 22 22 23 24 24 24 24 24 25 25 26 27 27 28 28 29 29 29 30 31 30 30 30 30 30 30 30 30 29 29 28 29 29 28 28 27 27
23 24 22 21 21 22 23 23 23 23 24 25 24 25 25 25 26 27 28 28 29 30 30 31 31 31 32 32 31 31 31 31 31 31 30 29 29 29 29 29 29 28 27 27
23 24 23 22 23 23 23 23 23 24 24 25 25 25 25 26 27 28 29 29 30 30 31 31 32 32 32 33 32 31 31 31 31 30 30 30 30 29 29 29 28 28 28 28
23 23 23 23 23 23 24 24 24 25 25 25 25 26 26 27 28 28 28 28 29 30 31 31 32 32 32 32 32 31 31 31 31 31 31 31 30 29 29 28 28 28 28 27
24 23 24 24 24 24 25 25 25 25 25 25 26 26 26 27 28 27 28 28 29 30 30 31 31 31 31 32 32 31 31 31 30 30 30 30 30 30 29 29 28 28 27 26
25 24 25 25 25 25 26 26 25 25 25 25 25 26 26 26 26 27 27 28 30 30 30 31 31 31 31 31 31 31 31 31 30 30 30 30 30 29 29 28 28 28 27 26
25 25 26 25 25 26 26 26 26 26 26 26 26 26 27 27 27 27 28 29 30 30 30 31 31 31 31 31 31 31 31 31 31 30 29 29 28 29 28 28 27 27 26 26
26 26 26 25 25 25 26 26 27 27 27 27 27 27 27 28 28 29 29 30 30 30 31 31 31 31 31 31 31 31 31 30 30 29 28 28 28 28 28 27 27 26 26 26
27 26 26 26 26 26 26 27 27 28 28 28 28 27 28 28 29 29 30 30 31 31 31 30 30 30 30 29 29 30 30 30 29 29 28 28 27 27 27 27 26 26 26 27
27 27 27 27 27 27 26 26 27 27 28 28 28 28 28 29 29 30 30 30 31 30 30 30 29 28 28 28 28 28 28 28 28 28 27 27 27 27 27 26 25 25 26 26
27 27 27 27 27 27 27 27 27 27 28 28 28 28 29 29 29 30 30 29 29 29 29 28 28 27 27 27 27 27 27 27 27 27 26 26 26 26 26 25 25 25 24 24
26 26 26 27 27 26 26 26 26 27 28 28 28 28 28 29 29 29 28 28 28 28 28 28 28 28 27 26 26 26 26 26 26 26 25 25 25 24 24 24 24 24 24 24
27 26 26 26 27 27 26 26 27 27 28 28 27 27 27 27 28 28 27 27 27 27 27 26 27 26 25 25 25 24 24 24 24 24 23 23 23 23 22 22 23 24 24 25
25 25 26 26 26 27 27 26 26 27 27 27 27 27 27 27 28 27 27 26 27 27 27 26 25 25 24 24 23 22 22 22 23 23 23 23 23 22 22 22 22 23 23 23
26 26 26 26 27 26 26 26 26 27 27 27 27 27 27 28 28 27 27 27 26 27 27 26 25 25 24 24 23 22 22 22 22 22 22 22 21 21 21 21 21 21 22 22
26 26 26 26 26 26 26 26 26 26 27 27 26 26 27 27 27 27 27 27 27 27 27 26 25 24 23 23 23 22 22 21 21 21 22 22 22 21 21 21 21 22 22 22
25 26 26 26 26 26 27 27 27 26 26 26 26 26 26 26 26 26 26 26 27 26 25 24 23 23 22 22 22 22 22 22 22 22 22 22 22 22 22 22 22 22 22 22
25 26 26 26 26 26 27 27 27 26 26 26 26 25 25 25 24 25 24 24 24 24 23 23 23 22 22 22 22 22 22 22 23 23 22 22 23 23 23 22 23 23 23 23
25 25 26 26 26 26 27 27 27 26 26 26 25 24 24 24 24 24 24 24 24 23 23 23 23 22 23 22 22 22 22 22 22 22 22 23 23 23 23 23 23 23 24 24
25 25 25 25 26 26 27 27 27 26 26 25 24 24 24 25 25 25 25 24 23 23 23 23 24 23 24 23 23 22 22 22 22 22 22 23 23 23 23 23 23 24 24 25
25 26 25 25 26 26 26 26 26 25 25 25 25 25 25 26 26 26 25 24 24 24 24 24 24 24 24 24 24 23 22 22 21 22 22 22 23 23 23 24 24 24 25 25
25 26 26 25 25 25 26 26 26 26 26 25 25 25 25 25 25 25 25 24 24 25 25 25 25 24 24 24 24 24 23 22 21 21 22 23 23 23 23 24 24 24 24 25
Wind_Direction
277 278 281 280 275 273 272 274 276 278 279 278 280 283 285 286 286 287 288 287 287 284 284 286 286 286 288 288 288 287 286 286 285 283 283 282 281 281 279 279 279 279 278 279
275 275 278 279 275 274 273 273 276 277 279 280 279 280 281 282 285 285 285 287 286 284 284 285 286 286 286 286 285 286 286 285 285 284 282 282 281 279 279 280 280 280 278 278
276 275 274 276 278 277 274 273 276 278 280 280 280 281 284 284 284 285 286 287 287 286 285 284 286 286 286 285 285 284 285 286 284 283 283 282 281 279 278 279 279 280 278 277
277 275 274 278 277 278 276 275 276 278 279 280 281 283 285 286 285 285 286 288 289 289 287 286 286 286 287 286 285 285 285 285 284 283 282 281 281 280 278 279 280 279 278 277
277 278 279 277 278 279 279 278 279 279 280 281 283 284 284 284 284 284 285 287 287 287 287 286 286 285 285 285 284 284 285 285 285 284 284 283 281 280 279 279 280 280 279 277
275 278 280 281 281 281 281 280 281 281 280 281 283 284 284 283 283 283 284 284 285 286 287 286 285 284 284 284 284 283 284 284 284 283 283 283 282 281 279 279 279 281 280 277
275 276 278 280 280 281 281 282 282 281 282 282 282 285 286 285 284 284 286 285 286 287 287 286 285 284 285 283 282 282 282 282 282 282 281 281 281 280 279 278 279 279 279 277
274 276 278 280 280 280 282 282 282 281 282 283 284 287 287 288 287 287 287 287 287 288 288 287 286 286 286 284 282 282 281 281 281 281 279 280 280 278 278 278 278 278 279 277
274 276 278 278 280 280 281 281 282 282 282 284 286 288 290 290 290 289 289 289 289 289 289 288 288 287 287 286 284 282 281 281 281 280 280 279 279 277 276 277 277 276 278 277
275 277 277 277 278 279 279 282 283 284 286 287 288 289 291 292 291 289 290 291 291 291 291 291 289 288 286 286 284 282 281 280 281 280 280 279 278 277 276 276 275 276 278 277
274 276 276 275 277 279 281 284 286 287 287 288 289 290 292 293 292 293 294 294 295 294 294 292 291 288 286 285 284 283 281 280 280 280 279 279 278 277 276 275 275 276 276 276
273 275 276 276 278 280 282 283 285 286 287 288 288 290 290 291 293 294 295 296 296 295 294 293 291 288 286 285 283 282 280 280 280 280 280 279 277 277 276 275 275 275 275 274
272 274 276 277 278 280 281 282 283 285 287 287 287 289 290 291 293 294 295 296 297 297 296 294 292 290 288 287 284 282 280 279 280 279 278 277 276 276 276 275 274 274 274 274
272 273 275 276 278 279 280 281 283 285 287 288 289 291 292 293 294 295 296 297 298 298 298 297 294 291 290 288 285 282 280 279 279 277 277 277 277 276 274 274 274 273 274 275
271 273 275 276 277 278 280 282 284 286 287 288 289 291 293 294 296 296 297 298 299 299 299 298 296 294 291 290 287 283 281 280 278 277 277 277 276 275 274 274 274 274 274 275
272 274 276 277 278 278 280 282 283 285 287 288 289 291 293 294 295 296 298 299 300 300 300 300 298 296 294 292 289 285 282 279 278 277 277 277 277 275 275 274 273 274 274 274
272 274 276 277 278 280 282 284 285 287 288 289 290 291 293 294 295 296 297 298 299 301 301 301 300 297 294 292 288 285 282 280 279 278 277 276 275 275 275 274 274 274 274 276
273 273 274 276 277 278 282 284 285 287 288 289 289 291 293 295 296 296 297 298 299 301 302 302 300 298 296 292 288 285 283 282 279 277 276 276 274 274 275 274 275 275 275 276
271 272 273 276 279 280 282 284 286 287 288 289 289 289 291 294 296 296 297 298 300 301 302 302 301 299 297 295 291 287 284 282 279 277 276 276 275 274 275 276 277 277 277 276
271 273 275 277 279 281 282 284 286 287 287 288 289 290 292 294 295 296 296 298 300 300 301 301 300 298 297 297 294 288 285 283 281 279 278 276 275 276 275 276 277 277 277 276
272 274 277 277 280 281 282 283 285 287 288 287 289 290 293 295 295 296 297 297 299 300 299 299 299 297 297 297 296 291 288 286 283 281 279 277 275 275 276 275 276 276 276 276
273 274 276 277 280 282 282 283 285 287 287 288 288 290 292 295 296 297 297 298 299 300 298 298 298 297 295 295 295 294 291 288 284 282 281 278 276 276 276 275 275 276 276 276
275 276 277 278 280 282 283 284 285 286 286 287 288 289 292 295 297 298 298 299 300 300 300 298 297 296 295 294 295 294 292 290 288 284 281 278 277 278 277 275 275 275 276 276
274 276 277 279 280 281 282 284 285 286 286 286 287 288 291 294 296 297 297 298 300 300 300 300 298 297 296 296 295 293 291 290 288 285 281 280 279 279 278 278 277 276 276 276
274 276 277 278 280 280 281 282 282 284 285 285 285 287 290 292 294 295 297 297 297 298 298 298 297 296 296 295 293 292 290 288 286 285 284 284 282 280 279 279 279 278 277 277
273 275 276 278 280 281 281 281 281 283 285 284 283 285 288 290 293 293 294 295 294 296 298 299 298 296 294 294 293 290 289 288 286 285 286 285 284 283 282 281 281 281 280 278
273 274 275 276 278 280 281 281 281 282 284 283 282 284 286 290 292 292 293 293 294 295 297 299 299 296 295 294 293 290 288 287 286 286 286 287 287 286 285 283 282 282 282 281
Height
5801 5800 5799 5798 5798 5797 5796 5795 5795 5795 5794 5793 5792 5790 5789 5788 5787 5786 5784 5783 5782 5781 5779 5778 5776 5775 5773 5771 5769 5767 5765 5764 5762 5761 5760 5759 5758 5756 5755 5754 5754 5753 5752 5751
5795 5794 5793 5792 5792 5791 5790 5790 5789 5788 5788 5787 5785 5784 5783 5782 5780 5779 5778 5777 5775 5774 5772 5771 5769 5768 5766 5764 5762 5760 5758 5756 5755 5753 5752 5751 5750 5749 5748 5747 5746 5745 5744 5743
5789 5788 5787 5787 5787 5785 5784 5783 5783 5782 5782 5780 5779 5778 5776 5775 5774 5772 5771 5770 5768 5766 5765 5763 5762 5760 5758 5757 5755 5753 5751 5749 5747 5745 5744 5743 5742 5741 5740 5739 5738 5737 5736 5734
5782 5782 5781 5784 5781 5779 5778 5778 5777 5775 5774 5773 5772 5771 5769 5768 5767 5765 5764 5762 5760 5759 5757 5756 5754 5752 5750 5748 5747 5745 5743 5741 5739 5737 5736 5735 5734 5733 5732 5731 5729 5728 5727 5726
5776 5775 5774 5776 5775 5773 5772 5771 5770 5769 5768 5766 5765 5764 5762 5761 5759 5758 5756 5755 5753 5751 5749 5747 5746 5744 5742 5740 5738 5736 5734 5733 5731 5729 5727 5726 5725 5724 5722 5721 5720 5719 5718 5717
5769 5768 5768 5771 5769 5767 5766 5765 5764 5762 5761 5759 5758 5757 5756 5754 5752 5750 5749 5747 5745 5743 5741 5739 5737 5735 5733 5731 5729 5727 5726 5724 5722 5720 5718 5717 5715 5714 5713 5712 5711 5710 5709 5708
5763 5761 5761 5763 5762 5761 5760 5760 5757 5755 5754 5752 5751 5749 5748 5746 5744 5742 5740 5738 5736 5734 5732 5730 5728 5726 5724 5722 5720 5718 5716 5714 5712 5710 5709 5707 5706 5705 5704 5703 5702 5701 5700 5699
5756 5755 5757 5756 5754 5754 5753 5751 5749 5748 5746 5745 5743 5741 5739 5737 5735 5733 5731 5729 5727 5725 5723 5720 5718 5716 5714 5712 5710 5708 5706 5704 5702 5701 5699 5698 5696 5695 5694 5694 5693 5692 5691 5690
5750 5751 5749 5748 5747 5746 5744 5743 5741 5740 5739 5737 5735 5733 5731 5729 5726 5724 5722 5720 5718 5715 5713 5710 5708 5705 5703 5701 5699 5698 5696 5694 5693 5691 5690 5688 5687 5686 5685 5684 5683 5683 5682 5681
5742 5742 5741 5740 5739 5737 5736 5735 5733 5732 5730 5729 5727 5725 5723 5720 5718 5716 5713 5711 5709 5706 5703 5701 5698 5695 5693 5691 5689 5687 5686 5684 5683 5681 5680 5678 5677 5676 5675 5675 5674 5673 5672 5672
5734 5734 5732 5732 5731 5729 5728 5727 5725 5724 5722 5721 5719 5717 5715 5712 5710 5707 5705 5702 5700 5697 5694 5691 5688 5685 5682 5680 5678 5677 5675 5674 5673 5671 5670 5669 5668 5666 5666 5665 5664 5664 5663 5663
5726 5726 5725 5725 5723 5722 5721 5719 5718 5716 5715 5713 5711 5709 5707 5705 5702 5699 5696 5694 5691 5687 5684 5681 5678 5675 5672 5670 5668 5667 5665 5664 5663 5661 5660 5659 5658 5657 5656 5655 5655 5654 5654 5654
5718 5717 5716 5716 5715 5714 5713 5711 5710 5708 5707 5705 5703 5701 5699 5696 5694 5691 5688 5685 5681 5678 5674 5671 5668 5665 5662 5660 5658 5656 5655 5654 5653 5652 5651 5650 5649 5648 5647 5646 5645 5645 5645 5644
5709 5709 5708 5707 5707 5706 5705 5703 5702 5700 5698 5696 5694 5692 5690 5688 5685 5682 5679 5676 5672 5669 5665 5662 5658 5655 5652 5650 5648 5646 5645 5644 5643 5642 5641 5640 5640 5639 5638 5638 5637 5636 5636 5635
5701 5700 5700 5699 5698 5697 5696 5695 5694 5692 5690 5688 5686 5684 5682 5679 5677 5673 5670 5667 5663 5660 5656 5653 5649 5646 5643 5641 5639 5637 5635 5634 5633 5633 5632 5631 5631 5630 5629 5629 5628 5628 5627 5627
5692 5692 5691 5690 5690 5689 5688 5686 5685 5683 5681 5680 5678 5675 5673 5670 5668 5665 5661 5658 5655 5651 5647 5644 5641 5638 5635 5633 5630 5628 5627 5626 5625 5624 5623 5622 5622 5622 5621 5620 5620 5619 5619 5618
5684 5684 5683 5682 5681 5681 5679 5678 5677 5675 5673 5671 5669 5667 5664 5661 5659 5656 5653 5649 5646 5643 5639 5636 5633 5629 5626 5624 5622 5620 5619 5617 5616 5615 5615 5614 5614 5613 5613 5612 5612 5611 5611 5610
5675 5675 5674 5674 5673 5672 5671 5670 5668 5666 5664 5662 5660 5658 5656 5653 5650 5648 5644 5641 5638 5635 5631 5628 5624 5621 5618 5616 5614 5612 5611 5610 5609 5608 5607 5607 5606 5606 5605 5605 5604 5604 5603 5602
5666 5666 5666 5665 5664 5664 5662 5661 5659 5658 5656 5654 5652 5650 5647 5645 5642 5639 5636 5633 5630 5627 5624 5620 5617 5614 5611 5609 5607 5605 5604 5602 5601 5600 5600 5599 5599 5598 5598 5597 5597 5596 5595 5594
5658 5658 5657 5657 5656 5655 5654 5652 5651 5649 5647 5645 5643 5641 5639 5637 5634 5631 5628 5625 5622 5619 5616 5613 5610 5607 5605 5602 5600 5599 5597 5595 5594 5593 5593 5592 5591 5591 5590 5590 5589 5589 5588 5587
5649 5649 5649 5648 5647 5646 5645 5644 5642 5641 5639 5637 5635 5633 5631 5628 5625 5623 5620 5618 5615 5611 5608 5605 5603 5600 5598 5596 5594 5592 5590 5589 5587 5586 5586 5585 5584 5583 5583 5582 5582 5581 5580 5580
5640 5640 5640 5639 5638 5637 5636 5635 5634 5632 5630 5628 5627 5625 5622 5620 5617 5615 5612 5609 5606 5603 5601 5598 5595 5593 5591 5589 5587 5585 5583 5582 5580 5579 5578 5577 5577 5576 5575 5575 5574 5574 5573 5572
5632 5631 5631 5630 5630 5629 5628 5627 5625 5624 5622 5620 5618 5616 5614 5612 5610 5607 5605 5602 5599 5596 5594 5591 5589 5586 5584 5582 5580 5578 5577 5575 5573 5572 5571 5570 5569 5568 5567 5567 5566 5565 5565 5564
5623 5623 5622 5622 5621 5620 5619 5618 5617 5615 5613 5612 5610 5608 5606 5604 5602 5600 5597 5595 5592 5589 5587 5584 5582 5580 5577 5575 5573 5571 5570 5568 5566 5564 5563 5562 5561 5560 5559 5558 5557 5557 5556 5555
5615 5614 5614 5613 5612 5611 5610 5609 5608 5606 5605 5603 5602 5600 5598 5597 5595 5592 5590 5587 5585 5583 5580 5578 5575 5573 5570 5568 5566 5564 5562 5560 5558 5557 5556 5554 5553 5552 5551 5550 5549 5548 5547 5547
5606 5606 5605 5604 5603 5602 5601 5600 5599 5598 5597 5595 5594 5592 5591 5589 5587 5584 5582 5580 5578 5576 5573 5571 5568 5565 5563 5561 5559 5556 5554 5552 5551 5549 5548 5547 5545 5544 5543 5542 5541 5539 5538 5537
5597 5597 5596 5596 5595 5594 5593 5592 5591 5590 5588 5587 5586 5584 5582 5581 5579 5577 5575 5572 5570 5568 5566 5563 5560 5558 5555 5553 5551 5549 5547 5545 5543 5542 5541 5539 5538 5536 5535 5533 5532 5531 5529 5528